C/2022 W3 ( Leonard )

Japanese version
Home page
Updated on September 2, 2023

---------------------------------------------------------------------

* Profile

Discovery Date November 26, 2022
Magnitude 19.7 mag
Discoverer Gregory J. Leonard (Mount Lemmon Survey)

* Pictures

* Orbital Elements

Epoch 2023 Sept. 13.0 TT = JDT 2460200.5
T 2023 June 22.77840 TT                                 Rudenko
q   1.3977314            (2000.0)            P               Q
z  +0.0035506      Peri.  116.52402     +0.45558678     +0.52435110
 +/-0.0000010      Node   132.26917     -0.51974349     -0.49938912
e   0.9950372      Incl.  103.55782     +0.72270837     -0.68968575
>From 822 observations 2022 Nov. 13-2023 Aug. 27, mean residual 0".8.

* Finding Charts

* Magnitudes Graph

        m1 = 12.0 + 5 log d + 10.0 log r

---------------------------------------------------------------------

The orbital elements are published on M.P.E.C. 2023-Q150.
The charts are made with StellaNavigator Ver.10 (AstroArts).
The magnitudes graphs are made with Comet for Windows.

---------------------------------------------------------------------

Copyright(C) Seiichi Yoshida (comet@aerith.net). All rights reserved.